Detroit Metro, MI

2:39 AM EST on February 23, 2018 (GMT -0500)
Detroit Metro Wayne County

Weather History for KDTW - March, 2015

Change the Weather History Date:

Saturday, March 7, 2015

  Actual Average Record
Temperature  
Mean Temperature 30 °F 34 °F  
Max Temperature 41 °F 42 °F 76 °F (2000)
Min Temperature 18 °F 26 °F 2 °F (1913)
Degree Days  
Heating Degree Days 35 31  
Month to date heating degree days 296 226  
Since 1 July heating degree days 5407 4779  
Cooling Degree Days 0 0  
Month to date cooling degree days 0 0  
Year to date cooling degree days 0 0  
Moisture  
Dew Point 20 °F    
Average Humidity 65    
Maximum Humidity 76    
Minimum Humidity 54    
Precipitation  
Precipitation 0.00 in 0.07 in 1.06 in (2009)
Month to date precipitation 0.32 0.50  
Year to date precipitation 3.12 4.48  
Snow  
Snow 0.00 in 0.30 in 4.00 in (1885)
Month to date snowfall 2.8 2.1  
Since 1 July snowfall 47.5 36.0  
Snow Depth 13.00 in    
Sea Level Pressure  
Sea Level Pressure 30.08 in    
Wind  
Wind Speed 11 mph (SSW)    
Max Wind Speed 21 mph    
Max Gust Speed 24 mph    
Visibility 10 miles    
Events      
T = Trace of Precipitation, MM = Missing Value Source: NWS Daily Summary

Daily Weather History Graph

Daily Weather History Graph

Search for Another Location

Airport or City:

Trip Planner

Search our weather history database for the weather conditions in past years. The results will help you decide how hot, cold, wet, or windy it might be!

Date:

Astronomy

Mar. 07, 2015 Rise Set
Actual Time 6:59 AM EST 6:30 PM EST
Civil Twilight 6:31 AM EST 6:58 PM EST
Nautical Twilight 5:58 AM EST 7:30 PM EST
Astronomical Twilight 5:26 AM EST 8:03 PM EST
Moon 8:33 PM EST (3/7) 7:43 AM EST (3/7)
Length of Visible Light 12h 27m
Length of Day
11h 31m
Waning Gibbous, 97% of the Moon is Illuminated
Mar 7
Waning Gibbous
Mar 13
Last Quarter
Mar 20
New
Mar 27
First Quarter
Apr 4
Full

Hourly Weather History & Observations

Time (EST) Temp. Windchill Dew Point Humidity Pressure Visibility Wind Dir Wind Speed Gust Speed Precip Events Conditions
12:53 AM 21.0 °F 7.6 °F 10.0 °F 63% 30.21 in 10.0 mi SSW 15.0 mph - N/A   Mostly Cloudy
1:53 AM 19.9 °F 7.3 °F 10.0 °F 65% 30.20 in 10.0 mi SSW 12.7 mph - N/A   Scattered Clouds
2:53 AM 19.9 °F 6.7 °F 10.0 °F 65% 30.19 in 10.0 mi SSW 13.8 mph - N/A   Scattered Clouds
3:53 AM 19.4 °F 8.6 °F 10.4 °F 68% 30.14 in 10.0 mi SSW 9.2 mph - N/A   Mostly Cloudy
4:53 AM 19.9 °F 12.1 °F 10.9 °F 68% 30.17 in 10.0 mi SSW 5.8 mph - N/A   Mostly Cloudy
5:53 AM 18.0 °F 8.7 °F 10.0 °F 71% 30.15 in 10.0 mi South 6.9 mph - N/A   Overcast
6:53 AM 19.0 °F 11.1 °F 10.9 °F 71% 30.14 in 10.0 mi South 5.8 mph - N/A   Overcast
7:53 AM 19.9 °F 10.1 °F 10.9 °F 68% 30.12 in 10.0 mi South 8.1 mph - N/A   Overcast
8:53 AM 21.9 °F 11.0 °F 12.9 °F 68% 30.11 in 10.0 mi South 10.4 mph - N/A   Overcast
9:53 AM 27.0 °F 15.2 °F 17.1 °F 66% 30.09 in 10.0 mi SSW 15.0 mph - N/A   Overcast
10:53 AM 30.0 °F 18.7 °F 19.0 °F 64% 30.08 in 10.0 mi SW 16.1 mph - N/A   Mostly Cloudy
11:53 AM 33.1 °F 24.4 °F 21.9 °F 64% 30.05 in 9.0 mi SSW 11.5 mph - N/A   Mostly Cloudy
12:53 PM 35.1 °F 26.9 °F 23.0 °F 61% 30.04 in 10.0 mi SSW 11.5 mph - N/A   Mostly Cloudy
1:53 PM 37.9 °F 30.0 °F 24.1 °F 57% 30.01 in 10.0 mi SW 12.7 mph - N/A   Mostly Cloudy
2:53 PM 39.9 °F 31.8 °F 25.0 °F 55% 29.99 in 10.0 mi SSW 15.0 mph - N/A   Scattered Clouds
3:53 PM 39.9 °F 31.4 °F 28.9 °F 65% 29.98 in 10.0 mi South 16.1 mph - N/A   Scattered Clouds
4:53 PM 39.2 °F 30.5 °F 28.4 °F 65% 29.95 in 10.0 mi SSW 16.1 mph - N/A   Partly Cloudy
5:53 PM 39.2 °F 31.2 °F 28.4 °F 65% 29.96 in 10.0 mi SSW 13.8 mph - N/A   Partly Cloudy
6:53 PM 37.0 °F 28.9 °F 28.9 °F 73% 30.00 in 10.0 mi SSW 12.7 mph - N/A   Scattered Clouds
7:53 PM 37.0 °F 29.8 °F 30.0 °F 76% 30.01 in 10.0 mi SSW 10.4 mph - N/A   Overcast
8:53 PM 37.0 °F 29.8 °F 28.9 °F 73% 30.03 in 10.0 mi SW 10.4 mph - N/A   Overcast
9:53 PM 37.0 °F 31.6 °F 30.0 °F 76% 30.05 in 10.0 mi WSW 6.9 mph - N/A   Overcast
10:53 PM 37.0 °F 31.0 °F 27.0 °F 67% 30.07 in 10.0 mi WNW 8.1 mph - N/A   Overcast
11:53 PM 35.1 °F 29.3 °F 26.1 °F 70% 30.08 in 10.0 mi West 6.9 mph - N/A   Scattered Clouds